Flight Track Log - Related Links

Times and Time Zones

All times are in EDT time to prevent confusion due to time zone crossing. See the FLG4294 flight status page for this flight to view local times or setup timezone preferences in your user account.

Time Position Orientation Groundspeed Altitude Reporting Facility
EDT Latitude Longitude Course Direction KTS MPH feet Rate Location/Type
Sun 10:05:58 PM 42.2036 -83.3556 12° North 166 191 1,200  Level Cleveland Center
Sun 10:07:04 PM 42.1494 -83.3614 185° South 190 219 4,200 2,373 Climbing Cleveland Center
Sun 10:08:12 PM 42.1092 -83.2981 131° Southeast 271 312 6,500 2,484 Climbing Cleveland Center
Sun 10:09:00 PM 42.5497 -83.2318 12° North  Level FlightAware Approximate
Sun 10:09:12 PM 42.1647 -83.2417 37° Northeast 274 315 9,500  Level Cleveland Center
Sun 10:10:00 PM 42.6394 -83.2049 12° North  Level FlightAware Approximate
Sun 10:10:16 PM 42.2422 -83.2281 North 291 335 11,700  Level Cleveland Center
Sun 10:11:00 PM 42.7290 -83.1780 12° North  Level FlightAware Approximate
Sun 10:11:16 PM 42.3236 -83.2175 North 297 342 13,200  Level Cleveland Center
Sun 10:12:16 PM 42.4200 -83.2019 North 325 374 14,800 1,600 Climbing Cleveland Center
Sun 10:13:16 PM 42.5225 -83.1892 North 346 398 16,400 1,600 Climbing Cleveland Center
Sun 10:14:16 PM 42.6269 -83.1736 North 370 426 18,000 1,300 Climbing Cleveland Center
Sun 10:15:16 PM 42.7314 -83.1611 North 370 426 19,000 1,300 Climbing Cleveland Center
Sun 10:16:16 PM 42.8381 -83.1456 North 375 432 20,600 1,000 Climbing Cleveland Center
Sun 10:17:16 PM 42.9133 -83.0439 45° Northeast 359 413 21,000 200 Climbing Cleveland Center
Sun 10:18:16 PM 42.9458 -82.8864 74° East 364 419 21,000  Level Cleveland Center
Sun 10:19:16 PM 42.9800 -82.7286 73° East 394 453 21,000  Level Cleveland Center
Sun 10:20:16 PM 43.0142 -82.5708 73° East 414 476 21,000  Level Cleveland Center
Sun 10:20:33 PM 43.0167 -82.4833 88° East 430 495 21,000  Level Toronto Center
Sun 10:21:33 PM 43.0500 -82.3500 71° East 430 495 21,000  Level Toronto Center
Sun 10:22:33 PM 43.0833 -82.1833 75° East 440 506 21,000  Level Toronto Center
Sun 10:23:33 PM 43.1167 -82.0333 73° East 440 506 21,000  Level Toronto Center
Sun 10:24:33 PM 43.1500 -81.8667 75° East 440 506 21,000  Level Toronto Center
Sun 10:25:33 PM 43.1833 -81.6833 76° East 450 518 21,000  Level Toronto Center
Sun 10:26:33 PM 43.2167 -81.5333 73° East 450 518 21,000  Level Toronto Center
Sun 10:27:33 PM 43.2500 -81.3500 76° East 460 529 21,000 -950 Level Toronto Center
Sun 10:28:33 PM 43.2833 -81.1833 75° East 450 518 19,100 -1,750 Descending Toronto Center
Sun 10:29:33 PM 43.3167 -81.0333 73° East 430 495 17,500 -1,800 Descending Toronto Center
Sun 10:30:33 PM 43.3333 -80.9000 80° East 410 472 15,500 -2,100 Descending Toronto Center
Sun 10:31:33 PM 43.3833 -80.7333 68° East 390 449 13,300 -2,000 Descending Toronto Center
Sun 10:32:33 PM 43.4000 -80.6167 79° East 360 414 11,500 -1,550 Descending Toronto Center
Sun 10:33:33 PM 43.4167 -80.5000 79° East 320 368 10,200 -1,250 Descending Toronto Center
Sun 10:34:33 PM 43.4500 -80.3833 68° East 290 334 9,000 -1,200 Descending Toronto Center
Sun 10:35:33 PM 43.4667 -80.3000 75° East 280 322 7,800 -1,000 Descending Toronto Center
Sun 10:36:33 PM 43.4833 -80.1833 79° East 280 322 7,000 -550 Descending Toronto Center
Sun 10:37:33 PM 43.4833 -80.1000 90° East 270 311 6,700 -1,000 Descending Toronto Center
Sun 10:38:33 PM 43.5167 -79.9833 68° East 270 311 5,000 -1,350 Descending Toronto Center
Sun 10:39:33 PM 43.5333 -79.8833 77° East 260 299 4,000 -1,000 Descending Toronto Center
Sun 10:40:33 PM 43.5500 -79.8167 71° East 230 265 3,000 -1,000 Descending Toronto Center

Login

Don't have an account? Register now (free) for customized features, flight alerts, and more!